User: anonymous   Login
Location: *
(58.7167°N, 26.1833°E)
Time: 08:49:56
(UTC+00:00)
Language:

Cosmos 1140 Rocket - Orbit

View from above orbital plane
View from above orbital plane
View from above satellite
View from above satellite

Ground track
Ground track

The orbit data is extracted from the following two-line orbital elements,

1 11574U 79089B   19295.85045700 +.00000077 +00000-0 +32317-4 0  9990
2 11574 074.0696 075.8291 0014959 124.0444 236.2134 14.40730487100472
Epoch (UTC): 22 October 2019 20:24:39
Eccentricity: 0.0014959
inclination: 74.0696°
perigee height: 745 km
apogee height: 767 km
right ascension of ascending node: 75.8291°
argument of perigee: 124.0444°
revolutions per day: 14.40730487
mean anomaly at epoch: 236.2134°
orbit number at epoch: 10047

The dashed part of the orbit path shows where the satellite is in the earth's shadow,  

DLR